www.pogodaiklimat.ru

Погода и климат >> Архив погоды >> Корея >> Пхохан


ПОГОДА в Пхохане

  • Прогноз погоды в Пхохане
  • Монитор погоды в Пхохане

АРХИВ ПОГОДЫ в Пхохане

Время (UTC), дата Ветер
(напр.,м/с)
 
Видим.   Явления Облачность Т
(С)
Тd
(С)
f
(%)
Тe
(С)
Тes
(С)
Комфортность P
(гПа)
Po
(гПа)
Тmin
(С)
Tmax
(С)
R
(мм)
R24
(мм)
S
(см)
18 10.07 С 5 10 км слаб. дождь 10/8 600 м
[Frnb As op]
+22.2 +22.0 99 +29 +29 очень
душно
1001.4 1000.9 6
21 10.07 СЗ 1 20 км 10/9 600 м
[Sc As op]
+22.2 +22.0 99 +29 +29 очень
душно
1001.6 1001.1
00 11.07 ЮЗ 3 20 км 9/9 600 м
[Sc]
+24.3 +22.1 88 +32 +32 очень
душно
1002.2 1001.8 +22.1 6
03 11.07 ЮЗ 2 20 км 10/8 1000 м
[Sc As op]
+26.0 +22.0 79 +34 +35 очень
душно
1002.2 1001.8
06 11.07 З 2 20 км 9/9 600 м
[Sc]
+27.5 +22.2 73 +36 +44 очень
душно
1001.9 1001.5
09 11.07 штиль 0 20 км 9// 1500 м
[Sc]
+26.0 +23.2 85 +35 +36 очень
душно
1002.6 1002.2
12 11.07 СВ 4 20 км 8/8 300 м
[Sc]
+23.0 +22.1 95 +31 +31 очень
душно
1005.2 1004.7 +28.0 0.0
15 11.07 20 км н/о +22.0 +20.6 92 +28 +28 душно 1005.9 1005.4
18 11.07 СВ 2 20 км 8/8 300 м
[Sc]
+21.2 +20.0 93 +26 +26 душно 1006.1 1005.6
21 11.07 20 км н/о +21.0 +19.8 93 +27 +27 душно 1007.4 1006.9
00 12.07 СВ 3 19 км 8/4 1000 м
[Sc Ac trans Ci fib]
+22.0 +20.2 90 +28 +32 душно 1007.4 1006.9 +20.9 0.0
03 12.07 С 3 19 км 9// 600 м
[Sc]
+23.8 +21.3 86 +30 +32 очень
душно
1006.8 1006.4
06 12.07 В 2 20 км 8/8 1500 м
[Sc]
+26.2 +21.6 76 +34 +36 очень
душно
1005.3 1004.9
09 12.07 СВ 2 20 км 8/0
[Ci sp]
+26.7 +21.8 75 +34 +36 очень
душно
1004.8 1004.4
12 12.07 З 3 20 км 9/0
[Ci sp]
+25.3 +20.3 74 +31 +31 очень
душно
1005.2 1004.8 +27.0
15 12.07 ЮЗ 2 16 км 3/0
[Ci fib]
+23.5 +20.2 82 +29 +29 душно 1005.0 1004.6
18 12.07 З 1 19 км 8/0
[Ci fib]
+22.6 +19.7 84 +29 +29 очень
душно
1004.6 1004.1
21 12.07 ЮЗ 1 20 км 10/4 1000 м
[Sc As op]
+22.6 +19.1 81 +29 +29 очень
душно
1003.9 1003.4
00 13.07 ЮЗ 4 20 км 9/0
[Ci sp]
+24.3 +18.2 69 +29 +35 душно 1003.2 1002.8 +22.5
03 13.07 З 2 20 км 8/0
[Ac trans Ci sp]
+26.2 +18.3 62 +31 +45 очень
душно
1002.2 1001.8
06 13.07 Ю 1 20 км 9/0
[Ac trans Ci sp]
+27.6 +19.3 61 +33 +43 очень
душно
1000.6 1000.2
09 13.07 В 3 19 км 8/3 1000 м
[Sc Ac trans Ci fib]
+27.4 +21.4 70 +35 +36 очень
душно
999.6 999.2
12 13.07 штиль 0 16 км 8/0
[Ac trans]
+24.7 +21.2 81 +31 +31 очень
душно
1000.8 1000.4 +28.1
15 13.07 СЗ 1 14 км 8/0
[Ci sp]
+22.5 +20.4 88 +29 +29 очень
душно
1001.6 1001.2
18 13.07 З 1 11 км 9/0
[Ci sp]
+21.7 +18.8 84 +27 +27 душно 1001.5 1001.0
21 13.07 штиль 0 11 км 8/0
[Ac trans Ci sp]
+21.3 +19.7 91 +26 +27 душно 1002.3 1001.8
00 14.07 С 6 12 км 9/9 600 м
[Sc]
+23.1 +20.8 87 +31 +31 очень
душно
1003.2 1002.8 +21.3
03 14.07 16 км н/о +24.9 +21.6 82 +32 +36 очень
душно
1004.3 1003.9
06 14.07 СВ 4 19 км 3/3 1000 м
[Sc]
+25.5 +21.9 81 +33 +40 очень
душно
1003.6 1003.2
09 14.07 С 2 19 км 3/3 1000 м
[Sc]
+23.9 +21.2 85 +30 +32 очень
душно
1003.9 1003.5
12 14.07 С 4 20 км 8/8 300 м
[Sc]
+22.6 +20.5 88 +29 +29 очень
душно
1006.1 1005.6 +25.8
15 14.07 СЗ 1 19 км 6/3 600 м
[Sc Ci fib]
+21.9 +20.1 90 +28 +28 душно 1007.0 1006.5
18 14.07 СЗ 1 20 км 8/1 600 м
[Sc Ci sp]
+21.1 +19.2 89 +26 +26 душно 1006.8 1006.3
21 14.07 СЗ 1 16 км 8/3 1500 м
[Sc Ac trans]
+21.0 +19.2 89 +27 +27 душно 1007.8 1007.3
00 15.07 СВ 4 19 км 8/4 1000 м
[Sc Ac trans]
+23.8 +20.5 82 +30 +32 очень
душно
1008.3 1007.9 +20.8
03 15.07 СВ 3 16 км 9/8 1000 м
[Sc Ac trans]
+24.0 +21.8 88 +31 +33 очень
душно
1009.2 1008.8
06 15.07 СВ 3 18 км 9/9 1000 м
[Sc]
+24.4 +21.5 84 +31 +32 очень
душно
1008.7 1008.3
09 15.07 В 2 20 км 8/6 600 м
[Sc Ac trans]
+24.5 +20.6 79 +30 +31 очень
душно
1008.4 1008.0
12 15.07 СВ 3 20 км 9/9 600 м
[Sc]
+23.3 +21.1 87 +31 +31 очень
душно
1010.2 1009.7 +25.3
15 15.07 СВ 1 20 км 10/9 600 м
[Sc As op]
+23.0 +20.5 86 +30 +30 очень
душно
1011.5 1011.0
18 15.07 С 2 20 км в посл. час дождь 10/8 600 м
[Sc As op]
+22.6 +20.8 90 +30 +30 очень
душно
1010.7 1010.2 0.2
21 15.07 СВ 1 20 км 10/8 600 м
[Sc As op]
+22.6 +20.3 87 +29 +29 очень
душно
1011.6 1011.1
00 16.07 С 4 20 км 5/5 600 м
[Sc]
+24.7 +20.8 79 +31 +34 очень
душно
1012.4 1012.0 +22.6 0.2
03 16.07 СВ 4 19 км 6/4 1000 м
[Sc Ac trans]
+25.3 +21.3 79 +32 +39 очень
душно
1012.8 1012.3
06 16.07 СВ 5 20 км 3/3 600 м
[Sc]
+25.1 +22.0 83 +32 +37 очень
душно
1012.4 1011.9
09 16.07 20 км н/о +24.8 +21.9 84 +32 +33 очень
душно
1011.7 1011.3
12 16.07 СВ 5 20 км 5/5 600 м
[Sc]
+23.2 +20.5 85 +31 +31 очень
душно
1013.3 1012.8 +25.8 0.0
15 16.07 20 км н/о +22.9 +20.4 86 +30 +30 очень
душно
1014.1 1013.6
18 16.07 СЗ 1 20 км 8/4 600 м
[Sc Ci fib]
+22.5 +20.4 88 +29 +29 очень
душно
1013.5 1013.0
21 16.07 20 км н/о +22.2 +20.2 88 +28 +28 душно 1014.0 1013.5
00 17.07 СВ 5 20 км 8/4 600 м
[Sc Ci fib]
+23.7 +20.4 82 +29 +32 душно 1013.9 1013.4 +22.1 0.0
03 17.07 20 км н/о +25.2 +20.6 76 +31 +33 очень
душно
1013.6 1013.1
06 17.07 С 3 20 км 8/8 1000 м
[Sc]
+26.4 +20.9 72 +33 +35 очень
душно
1012.2 1011.8
09 17.07 СВ 2 20 км 9/0
[Ci sp]
+25.9 +21.1 75 +33 +34 очень
душно
1010.9 1010.5
12 17.07 ЮЗ 1 20 км 9/0
[Ci sp]
+24.4 +20.7 80 +30 +30 очень
душно
1012.1 1011.7 +26.7
15 17.07 З 2 20 км 9/0
[Ac trans Ci sp]
+23.7 +20.2 81 +29 +29 душно 1011.9 1011.4

 

Местоположение метеостанции Пхохан (Корея): широта 36.03 долгота 129.38 высота над уровнем моря 4 м.

В архиве по умолчанию представлена погода в Пхохане за последнюю неделю. Архивные данные за месяц целиком и за предыдущие месяцы, начиная с января 2011 года, Вы можете получить, выбрав интересующий диапазон дат из раскрывающегося списка и нажав кнопку "Ввод!".


*Определитесь, кто Вы:
робот инопланетянин человек

Внимание! Время в таблицах - всемирное. Для получения местного времени необходимо прибавить поправку, которая равна 9 ч.

Смотрите также архив погоды в соседних городах и на ближайших метеорологических станциях:

Погода в Ульсане (Корея) (54 км)
Погода в Тэгу (Корея) (71 км)
Погода в Андоне (Корея) (85 км)
Погода в Куми (Корея) (96 км)
Погода в Ульджине (Корея) (106 км)
Погода в Пусане (Корея) (108 км)
Погода в Санджу (Корея) (118 км)
Погода в Масане (Корея) (120 км)
Погода на Чупунджнеоне (Корея) (126 км)
Погода в Чинхэгу (Корея) (139 км)

Пояснения к столбцам:

Ветер - указаны скорость ветра в м/с - средняя за 10 мин, порывы в срок и между сроками (в фигурных скобках) и направление, откуда дует ветер: С - северный, СВ - северо-восточный, В - восточный, ЮВ - юго-восточный, Ю - южный, ЮЗ - юго-западный, З - западный, СЗ - северо-западный.
Видимость - горизонтальная дальность видимости в метрах или километрах. При видимости от 1 до 10 км при отсутствии осадков обычно наблюдается дымка, при ухудшении видимости до 1 км и менее - туман. В сухую погоду видимость может ухудшаться дымом, пылью или мглою.
Явления - указаны атмосферные явления, наблюдавшиеся в срок или в последний час перед сроком; фигурными скобками обозначены явления, наблюдавшиеся между сроками (за 1-3 часа до срока); квадратными скобками обозначены град или гололедные отложения с указанием их диаметра в мм.
Облачность - указаны через наклонную черту общая и нижняя облачность в баллах и высота нижней границы облаков в метрах; квадратными скобками обозначены формы облаков: Ci - перистые, Cs - перисто-слоистые, Cc - перисто-кучевые, Ac - высококучевые, As - высокослоистые, Sc - слоисто-кучевые, Ns - слоисто-дождевые, Cu - кучевые, Cb - кучево-дождевые. Подробнее классификацию облаков см. в Атласе облаков (PDF).
T - Температура воздуха - температура, измеренная на высоте 2 м над землей.
Td - Температура точки росы - температура, при понижении до которой содержащийся в воздухе водяной пар достигнет насыщения.
f - Относительная влажность воздуха - влажноcть воздуха, измеренная на высоте 2 м над землей.
Te - Эффективная температура - температура, которую ощущает одетый по сезону человек в тени. Характеристика душности погоды. При расчете учитывается влияние влажности воздуха и скорости ветра на теплоощущения человека.
Tes - Эффективная температура на солнце - температура, которую ощущает человек, с поправкой на солнечный нагрев. Характеристика знойности погоды. Зависит от высоты солнца над горизонтом, облачности и скорости ветра. Ночью, в пасмурную погоду, а также при ветре 12 м/с и более поправка равна нулю.
P - Атмосферное давление - приведенное к уровню моря атмосферное давление.
Po - Атмосферное давление - измеренное на уровне метеостанции атмосферное давление.
Tmin - Минимальная температура - минимум температуры воздуха на высоте 2 м над землей.
Tmax - Максимальная температура - максимум температуры воздуха на высоте 2 м над землей.
R - Количество осадков - Количество выпавших осадков за период времени, мм. При наведении курсора мыши на число - период времени, за который выпало указанное количество осадков.
R24 - Количество осадков - Количество выпавших осадков за 24 часа, мм.
S - Снежный покров - Высота снежного покрова, см. При наведении курсора мыши на число - состояние снежного покрова и степень покрытия местности в баллах.